Regional Weather Roundup
Issued by NWS

Home | Current Version | Previous Version | Text Only | Print | Product List | Glossary Off
Versions: 1 2 3 4 5 6 7 8 9 10 11 12 13 14 15 16 17 18 19 20 21 22 23 24 25 26 27 28 29 30 31 32 33 34 35 36 37 38 39 40 41 42 43 44 45 46 47 48 49 50

000
ASUS45 KBOU 050610
RWRCO

WEATHER ROUNDUP FOR COLORADO
NATIONAL WEATHER SERVICE DENVER/BOULDER CO
1200 AM MDT SUN JUL 05 2015

NOTE: "FAIR" INDICATES FEW OR NO CLOUDS BELOW 12000 FEET WITH NO
SIGNIFICANT WEATHER AND/OR OBSTRUCTIONS TO VISIBILITY.

COZ001>005-013-030-031-050700-
...NORTHWEST COLORADO...

CITY           SKY/WX    TMP DP  RH WIND       PRES   REMARKS
CRAIG          MOCLDY    63  54  72 CALM      30.11S
HAYDEN         MOCLDY    63  46  55 E9        30.14S
MEEKER         MOCLDY    67  48  50 CALM      30.13F
MOUNT WERNER   NOT AVBL
STEAMBOAT SPGS MOCLDY    56  48  74 CALM      30.17S
WALDEN         CLOUDY    52  45  76 E7        30.26S
$$

COZ006>008-011-050700-
...WEST CENTRAL VALLEYS...

CITY           SKY/WX    TMP DP  RH WIND       PRES   REMARKS
GRAND JUNCTION LGT RAIN  69  61  75 W9        30.06R
MONTROSE       CLOUDY    76  48  37 S6        30.14R
EAGLE          MOCLDY    68  46  45 CALM      30.18R
RIFLE          CLOUDY    67  58  72 S3        30.09F
DELTA          CLOUDY    80  49  33 SW10      30.08R
NUCLA          LGT RAIN  68  54  60 W8        30.24R
$$

COZ017>023-064>068-050700-
...SOUTHWEST COLORADO...

CITY           SKY/WX    TMP DP  RH WIND       PRES   REMARKS
DURANGO        CLOUDY    60  57  89 VRB5      30.23F
CORTEZ         PTCLDY    66  56  70 W12       30.21R
PAGOSA SPRINGS CLOUDY    58  55  89 CALM      30.30F
TELLURIDE      CLOUDY    58  48  69 CALM      30.41S
WOLF CREEK PAS NOT AVBL
$$

COZ009-010-012-014-032>034-037-058>063-050700-
...CENTRAL COLORADO...

CITY           SKY/WX    TMP DP  RH WIND       PRES   REMARKS
ASPEN          MOCLDY    62  48  60 SE7       30.26F
BUENA VISTA    CLOUDY    54  47  78 CALM      30.30S
COPPER MTN     MOCLDY    54  36  50 S12       30.59F
BERTHOUD PASS  MOCLDY    45  36  70 W7        30.63S
COTTONWOOD PAS NOT AVBL
GUNNISON       CLOUDY    63  45  51 N5        30.31F
KREMMLING      MOCLDY    61  43  51 E6        30.24S
LEADVILLE      MOCLDY    50  45  83 NE5       30.42F
MONARCH PASS   CLOUDY    46  41  81 SW13      30.69F
SALIDA         CLOUDY    62  51  68 CALM      30.33S
SUNLIGHT       MOCLDY    57  41  54 CALM      30.50F
WILKERSON PASS MOCLDY    50  43  76 W7        30.55S
$$

COZ069>075-050700-
...SAN LUIS VALLEY/SANGRE DE CRISTO MOUNTAINS...

CITY           SKY/WX    TMP DP  RH WIND       PRES   REMARKS
ALAMOSA        MOCLDY    58  49  72 N7        30.27F
LA VETA PASS   PTCLDY    48  37  66 MISG      30.43F
SAGUACHE       MOCLDY    59  50  72 NW7       30.31S
$$

COZ035-036-038>040-050700-
...NORTHERN COLORADO FRONT RANGE...

CITY           SKY/WX    TMP DP  RH WIND       PRES   REMARKS
DENVER INTL AP MOCLDY    70  49  47 SW5       30.01F
DMNS CITY PARK   N/A     71  50  46 E7        30.00F
AURORA         MOCLDY    68  51  54 S8        30.04F
FRONT RANGE AP MOCLDY    70  54  56 S6        30.03S
ERIE MUNI ARPT MOCLDY    66  51  57 CALM      30.00R
BOULDER MUN AP MOCLDY    73  46  38 N9        30.00R
CENTENNIAL     MOCLDY    71  50  47 S6        30.05F
BROOMFIELD     MOCLDY    70  50  49 NE5       30.03F
FORT COLLINS   MOCLDY    68  55  64 CALM      30.00R
LONGMONT       MOCLDY    72  50  45 CALM      30.00S
$$

COZ041-046-047-076>085-087-088-050700-
...PIKES PEAK/PALMER DIVIDE AND SOUTHERN FOOTHILLS...

CITY           SKY/WX    TMP DP  RH WIND       PRES   REMARKS
COLO. SPRINGS  MOCLDY    65  51  60 N8        30.10S
A. F. ACADEMY  MOCLDY    66  47  50 N6        30.12S
ELLICOTT       MOCLDY     1 N/A N/A CALM      30.08S
FALCON         MOCLDY    62  46  55 NW5       30.16S
FORT CARSON    MOCLDY    65  51  60 NW13      30.06F
LIMON          PTCLDY    61  55  81 CALM      30.02F
MONUMENT HILL  NOT AVBL
TRINIDAD       PTCLDY    65  53  65 NW7       30.09S
$$

COZ042>045-048>051-090-091-050700-
...NORTHEAST COLORADO...

CITY           SKY/WX    TMP DP  RH WIND       PRES   REMARKS
GREELEY ARPT   PTCLDY    70  54  56 W3        29.97R
AKRON          MOCLDY    71  52  50 W10       29.95F
BURLINGTON     MOCLDY    71  54  54 S9        29.94F
WRAY           CLOUDY    78  60  53 CALM      29.91R
STERLING       MOCLDY    72  57  60 S5          N/A
HOLYOKE        CLOUDY    79  63  57 S9        29.91R
FORT MORGAN    MOCLDY    68  51  53 N6        29.95S
$$

COZ086-089-092>099-050700-
...SOUTHEAST COLORADO...

CITY           SKY/WX    TMP DP  RH WIND       PRES   REMARKS
PUEBLO         CLOUDY    74  54  49 W3        29.97F
LA JUNTA       MOCLDY    75  51  43 SW13      29.94F
LAMAR          PTCLDY    76  57  51 SW13      29.88F
SPRINGFIELD      N/A     72  61  68 S13       29.98S
$$



USA.gov is the U.S. government's official web portal to all federal, state and local government web resources and services.